Location: Cluj-Napoca
(46.7712°N, 23.6236°E)
Time: 00:09:24
(UTC+03:00)

N. Korean satellite - Pass Details

Date: 06 October 2021
Orbit: 450 x 494 km, 97.3° (Epoch: 28 October)

Event Time Altitude Azimuth Distance (km) Brightness Sun altitude
Rises 06:02:34 0° 24° (NNE) 2,568 10.7 -15.9°
Reaches altitude 10° 06:04:55 10° 38° (NE) 1,688 10.0 -15.5°
Maximum altitude 06:07:57 25° 95° (E) 1,035 9.1 -15.0°
Drops below altitude 10° 06:11:00 10° 152° (SSE) 1,688 9.6 -14.5°
Sets 06:13:20 0° 166° (SSE) 2,568 10.3 -14.1°
